Location: *
(43.9905°S, 176.4941°W)
Time: 18:04:36
(UTC+00:00)

Resurs 01 Rocket - Pass Details

Date: 08 December 2019
Orbit: 635 x 643 km, 98.0° (Epoch: 27 January)

Event Time Altitude Azimuth Distance (km) Brightness Sun altitude
Rises 08:03:39 0° 152° (SSE) 2,988 5.2 -7.3°
Reaches altitude 10° 08:06:29 10° 133° (SE) 2,066 4.2 -7.7°
Maximum altitude 08:09:40 19° 88° (E) 1,550 3.2 -8.1°
Enters shadow 08:12:38 11° 45° (NE) 1,989 3.5 -8.5°
